Погода в Крайнем

Россия / Республика Крым     45°13′39″N   33°50′09″E
темп.,
°C
ветер,
м/с
пор.,
м/с
влажн.,
%
обл.,
%
осадки,
мм/ч
давл.,
гПа
погр.,
м
16 мая, пн
пн1600:00+12зюз34781 0.0 101848
03:00+11юз22838 0.0 101821
06:00+11ююз34835 0.0 101864
09:00+18з35585 0.0 1019747
12:00+22зсз58416 0.0 10182233
15:00+22зюз67435 0.0 10181561
18:00+19зюз56525 0.0 1018875
21:00+12юз348443 0.0 101941
17 мая, вт
вт1700:00+12зюз22897 0.0 101917
03:00+12ююз228461 0.0 101826
06:00+13юз248810 0.0 1018103
09:00+18зюз3563100 0.0 1017738
12:00+20зюз566088 0.5 1017940
15:00+21зюз575422 1.1 10161319
18:00+17зюз5769100 0.1 1016448
21:00+14ююз3583100 0.1 1015113
18 мая, ср
ср1800:00+14ююз3682100 0.1 1014139
03:00+13зюз4893100 1.3 1013347
06:00+13зюз3598100 7.1 1011294
09:00+13з3697100 16.6 1011406
12:00+12с6986100 3.6 1013710
15:00+15с7854100 3.9 10141597
18:00+15ссз5850100 0.0 1015673
21:00+9сз51084100 0.7 1019462
19 мая, чт
чт1900:00+7ссз4108854 0.4 1021315
03:00+8ссз4990100 0.7 1022381
06:00+9ссз48886 0.2 1024415
09:00+13ссз567212 0.2 1026877
12:00+16ссз565275 0.1 10261832
15:00+16сз4550100 0.1 10261818
18:00+16зсз235612 0.0 10261073
21:00+10з35818 0.0 102775
20 мая, пт
пт2000:00+10юз358378 0.0 102686
03:00+10юз468310 0.0 102596
06:00+11юз47895 0.0 1025141
09:00+17юз67655 0.0 1025773
12:00+19юз676072 0.0 10241131
15:00+19юз77595 0.0 1023967
18:00+17юз686920 0.0 1022632
21:00+13ююз51094100 0.0 1021279